Weather History for Shawano, WI

Change the Weather History Date:

Thursday, May 10, 2012

  Actual Average (KGRB) Record (KGRB)
Temperature  
Mean Temperature 54 °F 53 °F  
Max Temperature 85 °F 64 °F 86 °F (1896)
Min Temperature 38 °F 42 °F 24 °F (1966)
Degree Days  
Heating Degree Days 10 12  
Month to date heating degree days 135  
Since 1 July heating degree days 7672  
Cooling Degree Days 0 0  
Month to date cooling degree days 0  
Year to date cooling degree days 2  
Growing Degree Days 4 (Base 50)    
Moisture  
Dew Point 36 °F    
Average Humidity 52    
Maximum Humidity 95    
Minimum Humidity 23    
Precipitation  
Precipitation 0.00 in 0.08 in 1.03 in (1895)
Month to date precipitation 0.83  
Year to date precipitation 7.55  
Snow  
Snow 0.00 in 0.00 in 4.30 in (1990)
Month to date snowfall 0.1  
Since 1 July snowfall 51.3  
Snow Depth -    
Sea Level Pressure  
Sea Level Pressure 29.96 in    
Wind  
Wind Speed 2 mph (SW)    
Max Wind Speed 10 mph    
Max Gust Speed -    
Visibility 10 miles    
Events      
T = Trace of Precipitation, MM = Missing Value Source: NWS Daily Summary

Daily Weather History Graph

Daily Weather History Graph

Search for Another Location

Airport:

Trip Planner

Search our weather history database for the weather conditions in past years. The results will help you decide how hot, cold, wet, or windy it might be!

Date:

Astronomy

May. 10, 2012 Rise Set
Actual Time 5:31 AM CDT 8:10 PM CDT
Civil Twilight 4:57 AM CDT 8:44 PM CDT
Nautical Twilight 4:15 AM CDT 9:26 PM CDT
Astronomical Twilight 3:27 AM CDT 10:15 PM CDT
Moon 12:10 AM CDT (5/10) 9:55 AM CDT (5/10)
Length of Visible Light 15h 46m
Length of Day
14h 39m
Waning Gibbous, 73% of the Moon is Illuminated
May 10
Waning Gibbous
May 12
Last Quarter
May 20
New
May 28
First Quarter
Jun 4
Full

Hourly Weather History & Observations

Time (CDT) Temp. Windchill Dew Point Humidity Pressure Visibility Wind Dir Wind Speed Gust Speed Precip Events Conditions
12:15 AM 46.2 °F - 38.5 °F 74% 29.95 in 10.0 mi Calm Calm - N/A   Clear
12:35 AM 45.5 °F - 38.7 °F 77% 29.95 in 10.0 mi Calm Calm - N/A   Clear
12:55 AM 44.8 °F - 39.7 °F 82% 29.95 in 10.0 mi Calm Calm - N/A   Clear
1:15 AM 42.4 °F - 38.8 °F 87% 29.96 in 10.0 mi Calm Calm - N/A   Clear
1:35 AM 41.7 °F - 39.2 °F 91% 29.96 in 10.0 mi Calm Calm - N/A   Clear
1:55 AM 42.8 °F - 39.7 °F 89% 29.95 in 10.0 mi Calm Calm - N/A   Clear
2:15 AM 41.7 °F 39.8 °F 39.0 °F 90% 29.95 in 10.0 mi West 3.5 mph - N/A   Clear
2:35 AM 41.7 °F - 38.8 °F 89% 29.95 in 10.0 mi Calm Calm - N/A   Clear
3:15 AM 41.5 °F - 38.5 °F 89% 29.96 in 10.0 mi Calm Calm - N/A   Clear
3:35 AM 41.0 °F - 38.1 °F 89% 29.96 in 10.0 mi Calm Calm - N/A   Clear
3:55 AM 40.3 °F - 38.1 °F 92% 29.96 in 10.0 mi Calm Calm - N/A   Clear
4:15 AM 39.7 °F - 37.6 °F 92% 29.96 in 10.0 mi Calm Calm - N/A   Clear
4:35 AM 39.0 °F - 37.2 °F 93% 29.96 in 7.0 mi Calm Calm - N/A   Clear
4:55 AM 39.2 °F - 37.4 °F 93% 29.96 in 10.0 mi Calm Calm - N/A   Clear
5:15 AM 39.0 °F - 37.4 °F 94% 29.97 in 7.0 mi Calm Calm - N/A   Clear
5:35 AM 38.7 °F - 37.0 °F 94% 29.97 in 7.0 mi Calm Calm - N/A   Clear
5:55 AM 38.7 °F - 37.2 °F 95% 29.97 in 10.0 mi Calm Calm - N/A   Clear
6:15 AM 38.8 °F - 37.4 °F 95% 29.98 in 10.0 mi Calm Calm - N/A   Clear
6:35 AM 38.8 °F - 37.4 °F 95% 29.98 in 10.0 mi Calm Calm - N/A   Clear
6:55 AM 40.8 °F - 39.2 °F 94% 29.99 in 10.0 mi Calm Calm - N/A   Clear
7:15 AM 43.3 °F 41.7 °F 39.4 °F 86% 30.00 in 10.0 mi West 3.5 mph - N/A   Clear
7:35 AM 45.5 °F 42.5 °F 38.5 °F 76% 30.00 in 10.0 mi West 5.8 mph - N/A   Clear
8:35 AM 51.6 °F - 40.1 °F 65% 30.01 in 10.0 mi West 3.5 mph - N/A   Clear
8:55 AM 53.8 °F - 40.3 °F 60% 30.01 in 10.0 mi West 4.6 mph - N/A   Clear
9:15 AM 56.1 °F - 39.9 °F 55% 30.01 in 10.0 mi West 5.8 mph - N/A   Clear
9:35 AM 58.3 °F - 38.3 °F 47% 30.01 in 10.0 mi West 6.9 mph - N/A   Clear
9:55 AM 59.7 °F - 35.6 °F 41% 30.01 in 10.0 mi WSW 6.9 mph - N/A   Clear
10:15 AM 61.0 °F - 34.5 °F 37% 30.01 in 10.0 mi WSW 4.6 mph - N/A   Clear
10:35 AM 62.1 °F - 33.4 °F 34% 30.00 in 10.0 mi WSW 5.8 mph - N/A   Clear
10:55 AM 63.3 °F - 33.3 °F 33% 30.00 in 10.0 mi West 3.5 mph - N/A   Clear
11:15 AM 63.9 °F - 32.9 °F 31% 29.99 in 10.0 mi WNW 4.6 mph - N/A   Clear
11:35 AM 64.9 °F - 33.4 °F 31% 29.99 in 10.0 mi WSW 4.6 mph - N/A   Clear
11:55 AM 65.7 °F - 33.1 °F 30% 29.99 in 7.0 mi West 6.9 mph - N/A   Clear
12:15 PM 66.4 °F - 31.8 °F 28% 29.98 in 10.0 mi SW 5.8 mph - N/A   Clear
12:35 PM 66.7 °F - 32.2 °F 28% 29.97 in 10.0 mi SSW 3.5 mph - N/A   Clear
12:55 PM 67.5 °F - 31.3 °F 26% 29.97 in 10.0 mi Calm Calm - N/A   Clear
1:15 PM 67.8 °F - 31.3 °F 26% 29.96 in 10.0 mi SW 3.5 mph - N/A   Clear
1:35 PM 68.5 °F - 31.8 °F 26% 29.96 in 10.0 mi Calm Calm - N/A   Clear
1:55 PM 68.7 °F - 32.7 °F 26% 29.96 in 10.0 mi West 6.9 mph - N/A   Clear
2:15 PM 69.3 °F - 31.8 °F 25% 29.95 in 10.0 mi SW 9.2 mph - N/A   Clear
2:35 PM 69.8 °F - 30.6 °F 23% 29.94 in 10.0 mi Calm Calm - N/A   Clear
2:55 PM 70.5 °F - 31.3 °F 23% 29.94 in 10.0 mi WSW 10.4 mph - N/A   Clear
3:15 PM 70.7 °F - 32.2 °F 24% 29.94 in 10.0 mi West 4.6 mph - N/A   Clear
3:35 PM 71.2 °F - 32.2 °F 24% 29.94 in 10.0 mi SW 8.1 mph - N/A   Clear
3:55 PM 71.2 °F - 31.6 °F 23% 29.93 in 10.0 mi South 6.9 mph - N/A   Clear
4:15 PM 71.1 °F - 32.5 °F 24% 29.93 in 10.0 mi SW 9.2 mph - N/A   Clear
4:35 PM 71.2 °F - 32.0 °F 24% 29.93 in 10.0 mi SSW 5.8 mph - N/A   Clear
4:55 PM 71.2 °F - 32.2 °F 24% 29.92 in 10.0 mi WSW 5.8 mph - N/A   Clear
5:15 PM 71.2 °F - 31.8 °F 23% 29.93 in 10.0 mi SSW 8.1 mph - N/A   Clear
5:35 PM 71.2 °F - 31.6 °F 23% 29.92 in 10.0 mi WSW 4.6 mph - N/A   Clear
5:55 PM 71.1 °F - 31.3 °F 23% 29.93 in 10.0 mi SW 8.1 mph - N/A   Clear
6:15 PM 70.9 °F - 31.5 °F 23% 29.92 in 10.0 mi SW 8.1 mph - N/A   Clear
6:35 PM 70.3 °F - 31.6 °F 24% 29.92 in 10.0 mi SW 9.2 mph - N/A   Clear
6:55 PM 69.8 °F - 32.4 °F 25% 29.92 in 10.0 mi SW 3.5 mph - N/A   Clear
7:15 PM 68.7 °F - 34.5 °F 28% 29.92 in 10.0 mi SSW 5.8 mph - N/A   Clear
7:35 PM 67.5 °F - 34.9 °F 30% 29.92 in 10.0 mi SSW 5.8 mph - N/A   Clear
7:55 PM 66.0 °F - 35.1 °F 32% 29.92 in 10.0 mi SSW 5.8 mph - N/A   Clear
8:15 PM 64.6 °F - 35.4 °F 34% 29.93 in 10.0 mi South 5.8 mph - N/A   Clear
8:35 PM 63.3 °F - 37.0 °F 38% 29.93 in 10.0 mi South 4.6 mph - N/A   Clear
8:55 PM 61.9 °F - 38.7 °F 42% 29.94 in 10.0 mi SSW 5.8 mph - N/A   Clear
9:15 PM 61.2 °F - 39.0 °F 44% 29.94 in 10.0 mi South 4.6 mph - N/A   Clear
9:35 PM 60.4 °F - 39.2 °F 45% 29.95 in 10.0 mi SSW 3.5 mph - N/A   Clear
9:55 PM 59.5 °F - 39.7 °F 48% 29.96 in 10.0 mi SSW 3.5 mph - N/A   Clear
10:15 PM 59.4 °F - 40.1 °F 49% 29.96 in 10.0 mi SSW 3.5 mph - N/A   Clear
10:35 PM 59.4 °F - 39.7 °F 48% 29.96 in 10.0 mi SSW 4.6 mph - N/A   Clear
10:55 PM 59.5 °F - 39.4 °F 47% 29.96 in 10.0 mi SSW 3.5 mph - N/A   Clear
11:15 PM 59.4 °F - 39.0 °F 47% 29.97 in 10.0 mi South 3.5 mph - N/A   Clear
11:35 PM 58.3 °F - 39.7 °F 50% 29.97 in 10.0 mi SW 3.5 mph - N/A   Clear